Location: The Saddle
(36.8333°N, 80.3417°W)
Time: 03:33:55
(UTC-04:00)

ARIANE 6 FM1 Upper Stage - Visible Passes

Search period start: 20 May 2026 00:00
Search period end: 30 May 2026 00:00
Orbit: 526 x 601 km, 62.0° (Epoch: 19 May)

Date Brightness Start Highest point End Pass type
(mag) Time Alt. Az. Time Alt. Az. Time Alt. Az.
27 May 5.4 05:30:17 10° SE 05:32:24 14° ESE 05:34:30 10° E visible
28 May 5.0 05:28:33 10° SSE 05:31:43 21° ESE 05:34:50 10° ENE visible
29 May 4.3 05:27:18 10° S 05:31:02 31° ESE 05:34:43 10° NE visible
